• In Netherlands
  • List of Countries
  • For 7 days
  • Water Temperature
  • Satellite Maps
  • Weather Map
  • Weather Widgets
  • user-avatar
    Login

    Hourly Weather Armawir

    Today, 23 May, Wednesday

    Time Temperature Precipitation Wind Pressure Humidity
    00:00 +19°C° 0.6 mm 1 mps 690 mmHg 78%
    01:00 +19°C° 0.2 mm 1 mps 690 mmHg 79%
    02:00 +19°C° 0.2 mm 1 mps 690 mmHg 80%
    03:00 +18°C° 0 mm 1 mps 689 mmHg 82%
    04:00 +18°C° 0.1 mm 1 mps 690 mmHg 80%
    05:00 +19°C° 0.1 mm 1 mps 690 mmHg 78%
    06:00 +19°C° 0.1 mm 1 mps 690 mmHg 76%
    07:00 +21°C° 0 mm 1 mps 690 mmHg 70%
    08:00 +21°C° 0 mm 2 mps 690 mmHg 64%
    09:00 +23°C° 0 mm 2 mps 691 mmHg 59%
    10:00 +24°C° 0.2 mm 2 mps 690 mmHg 56%
    11:00 +25°C° 0.2 mm 3 mps 690 mmHg 52%
    12:00 +26°C° 0.2 mm 3 mps 690 mmHg 49%
    13:00 +27°C° 0.4 mm 3 mps 690 mmHg 47%
    14:00 +27°C° 0.4 mm 4 mps 690 mmHg 45%
    15:00 +28°C° 0.4 mm 4 mps 690 mmHg 44%
    16:00 +27°C° 0.6 mm 4 mps 689 mmHg 47%
    17:00 +26°C° 0.6 mm 3 mps 689 mmHg 50%
    18:00 +25°C° 0.6 mm 3 mps 689 mmHg 53%
    19:00 +24°C° 0.4 mm 3 mps 689 mmHg 57%
    20:00 +21°C° 0.4 mm 2 mps 689 mmHg 61%
    21:00 +20°C° 0.4 mm 2 mps 689 mmHg 65%
    22:00 +19°C° 0.1 mm 2 mps 689 mmHg 65%
    23:00 +19°C° 0.1 mm 2 mps 689 mmHg 65%

    Tomorrow, 24 May, Thursday

    Time Temperature Precipitation Wind Pressure Humidity
    00:00 +18°C° 0.1 mm 2 mps 689 mmHg 66%
    01:00 +18°C° 0.1 mm 2 mps 689 mmHg 66%
    02:00 +17°C° 0.1 mm 2 mps 689 mmHg 66%
    03:00 +17°C° 0.1 mm 2 mps 689 mmHg 67%
    04:00 +17°C° 0 mm 2 mps 688 mmHg 66%
    05:00 +19°C° 0 mm 1 mps 688 mmHg 65%
    06:00 +19°C° 0 mm 1 mps 688 mmHg 64%
    07:00 +21°C° 0 mm 1 mps 688 mmHg 58%
    08:00 +22°C° 0 mm 1 mps 688 mmHg 53%
    09:00 +23°C° 0 mm 1 mps 688 mmHg 48%
    10:00 +24°C° 0.1 mm 1 mps 688 mmHg 46%
    11:00 +25°C° 0.1 mm 2 mps 688 mmHg 44%
    12:00 +26°C° 0.1 mm 2 mps 687 mmHg 42%
    13:00 +26°C° 0.2 mm 2 mps 687 mmHg 41%
    14:00 +26°C° 0.2 mm 2 mps 687 mmHg 40%
    15:00 +27°C° 0.2 mm 2 mps 687 mmHg 40%
    16:00 +26°C° 0.1 mm 2 mps 686 mmHg 42%
    17:00 +26°C° 0.1 mm 2 mps 686 mmHg 44%
    18:00 +25°C° 0.1 mm 2 mps 686 mmHg 46%
    19:00 +24°C° 0.1 mm 2 mps 686 mmHg 50%
    20:00 +21°C° 0.1 mm 2 mps 686 mmHg 55%
    21:00 +19°C° 0.1 mm 2 mps 686 mmHg 59%
    22:00 +19°C° 0 mm 2 mps 686 mmHg 61%
    23:00 +18°C° 0 mm 2 mps 686 mmHg 63%

    Day after tomorrow, 25 May, Friday

    Time Temperature Precipitation Wind Pressure Humidity
    00:00 +19°C° 0 mm 1 mps 685 mmHg 65%
    01:00 +18°C° 0.1 mm 1 mps 685 mmHg 66%
    02:00 +18°C° 0.1 mm 1 mps 685 mmHg 67%
    03:00 +18°C° 0.1 mm 1 mps 685 mmHg 69%
    04:00 +18°C° 0.1 mm 1 mps 685 mmHg 67%
    05:00 +19°C° 0.1 mm 1 mps 685 mmHg 65%
    06:00 +19°C° 0.1 mm 1 mps 685 mmHg 64%
    07:00 +21°C° 0.1 mm 1 mps 685 mmHg 60%
    08:00 +22°C° 0.1 mm 1 mps 685 mmHg 55%
    09:00 +24°C° 0.1 mm 2 mps 685 mmHg 51%
    10:00 +25°C° 0.2 mm 2 mps 685 mmHg 49%
    11:00 +26°C° 0.2 mm 2 mps 684 mmHg 46%
    12:00 +27°C° 0.2 mm 2 mps 684 mmHg 44%
    13:00 +27°C° 0.6 mm 2 mps 684 mmHg 43%
    14:00 +27°C° 0.6 mm 3 mps 684 mmHg 43%
    15:00 +28°C° 0.6 mm 3 mps 684 mmHg 42%
    16:00 +27°C° 0.6 mm 2 mps 684 mmHg 45%
    17:00 +26°C° 0.6 mm 2 mps 684 mmHg 48%
    18:00 +26°C° 0.6 mm 2 mps 684 mmHg 51%
    19:00 +24°C° 0.5 mm 2 mps 684 mmHg 54%
    20:00 +23°C° 0.5 mm 1 mps 684 mmHg 57%
    21:00 +22°C° 0.5 mm 1 mps 684 mmHg 60%
    22:00 +21°C° 0.3 mm 1 mps 684 mmHg 61%
    23:00 +21°C° 0.3 mm 1 mps 684 mmHg 63%

    26 May, Saturday

    Time Temperature Precipitation Wind Pressure Humidity
    00:00 +20°C° 0.3 mm 1 mps 684 mmHg 65%
    01:00 +20°C° 0.3 mm 1 mps 684 mmHg 66%
    02:00 +19°C° 0.3 mm 1 mps 684 mmHg 67%
    03:00 +19°C° 0.3 mm 1 mps 684 mmHg 68%
    04:00 +20°C° 0.3 mm 1 mps 684 mmHg 67%
    05:00 +20°C° 0.3 mm 1 mps 685 mmHg 66%
    06:00 +21°C° 0.3 mm 1 mps 685 mmHg 65%
    07:00 +22°C° 0.1 mm 1 mps 685 mmHg 60%
    08:00 +24°C° 0.1 mm 1 mps 685 mmHg 55%
    09:00 +25°C° 0.1 mm 1 mps 685 mmHg 50%
    10:00 +26°C° 0.3 mm 2 mps 685 mmHg 47%
    11:00 +27°C° 0.3 mm 2 mps 685 mmHg 43%
    12:00 +28°C° 0.3 mm 2 mps 685 mmHg 40%
    13:00 +29°C° 0.6 mm 2 mps 685 mmHg 40%
    14:00 +29°C° 0.6 mm 3 mps 685 mmHg 40%
    15:00 +29°C° 0.6 mm 3 mps 684 mmHg 40%
    16:00 +28°C° 1.2 mm 3 mps 684 mmHg 44%
    17:00 +27°C° 1.2 mm 3 mps 684 mmHg 48%
    18:00 +26°C° 1.2 mm 3 mps 684 mmHg 52%
    19:00 +25°C° 1.8 mm 3 mps 685 mmHg 58%
    20:00 +22°C° 1.8 mm 3 mps 686 mmHg 64%
    21:00 +20°C° 1.8 mm 3 mps 686 mmHg 70%
    22:00 +20°C° 0.3 mm 2 mps 686 mmHg 70%
    23:00 +21°C° 0.3 mm 1 mps 686 mmHg 71%

    27 May, Sunday

    Time Temperature Precipitation Wind Pressure Humidity
    00:00 +20°C° 0.3 mm 1 mps 687 mmHg 72%
    01:00 +20°C° 0.4 mm 1 mps 687 mmHg 72%
    02:00 +19°C° 0.4 mm 1 mps 687 mmHg 72%
    03:00 +19°C° 0.4 mm 1 mps 686 mmHg 72%
    04:00 +19°C° 0.3 mm 1 mps 687 mmHg 70%
    05:00 +20°C° 0.3 mm 1 mps 687 mmHg 68%
    06:00 +21°C° 0.3 mm 1 mps 688 mmHg 66%
    07:00 +22°C° 0.1 mm 1 mps 688 mmHg 60%
    08:00 +24°C° 0.1 mm 1 mps 689 mmHg 53%
    09:00 +26°C° 0.1 mm 2 mps 689 mmHg 47%
    10:00 +27°C° 0 mm 2 mps 689 mmHg 43%
    11:00 +28°C° 0 mm 2 mps 689 mmHg 39%
    12:00 +29°C° 0 mm 2 mps 689 mmHg 35%
    13:00 +30°C° 0.1 mm 2 mps 689 mmHg 34%
    14:00 +30°C° 0.1 mm 2 mps 689 mmHg 33%
    15:00 +30°C° 0.1 mm 2 mps 689 mmHg 32%
    16:00 +30°C° 0.2 mm 2 mps 689 mmHg 36%
    17:00 +29°C° 0.2 mm 2 mps 689 mmHg 39%
    18:00 +28°C° 0.2 mm 3 mps 689 mmHg 43%
    19:00 +26°C° 0.2 mm 3 mps 690 mmHg 49%
    20:00 +24°C° 0.2 mm 3 mps 690 mmHg 55%
    21:00 +21°C° 0.2 mm 3 mps 690 mmHg 61%
    22:00 +20°C° 0.1 mm 2 mps 690 mmHg 63%
    23:00 +20°C° 0.1 mm 2 mps 690 mmHg 66%

    28 May, Monday

    Time Temperature Precipitation Wind Pressure Humidity
    00:00 +19°C° 0.1 mm 2 mps 690 mmHg 69%
    01:00 +18°C° 0 mm 2 mps 690 mmHg 69%
    02:00 +18°C° 0 mm 2 mps 690 mmHg 70%
    03:00 +18°C° 0 mm 2 mps 690 mmHg 71%
    04:00 +19°C° 0 mm 1 mps 690 mmHg 70%
    05:00 +20°C° 0 mm 1 mps 691 mmHg 68%
    06:00 +21°C° 0 mm 1 mps 691 mmHg 66%
    07:00 +22°C° 0 mm 1 mps 691 mmHg 59%
    08:00 +24°C° 0 mm 1 mps 691 mmHg 53%
    09:00 +26°C° 0 mm 1 mps 691 mmHg 46%
    10:00 +27°C° 0 mm 2 mps 690 mmHg 43%
    11:00 +29°C° 0 mm 2 mps 690 mmHg 39%
    12:00 +30°C° 0 mm 2 mps 690 mmHg 36%
    13:00 +30°C° 0.1 mm 2 mps 690 mmHg 35%
    14:00 +31°C° 0.1 mm 2 mps 689 mmHg 34%
    15:00 +31°C° 0.1 mm 2 mps 689 mmHg 33%
    16:00 +30°C° 0.4 mm 2 mps 689 mmHg 38%
    17:00 +29°C° 0.4 mm 1 mps 689 mmHg 43%
    18:00 +28°C° 0.4 mm 1 mps 689 mmHg 47%
    19:00 +26°C° 0.3 mm 1 mps 688 mmHg 51%
    20:00 +24°C° 0.3 mm 1 mps 688 mmHg 56%
    21:00 +23°C° 0.3 mm 1 mps 688 mmHg 60%
    22:00 +22°C° 0 mm 1 mps 688 mmHg 62%
    23:00 +21°C° 0 mm 2 mps 688 mmHg 65%
    Show more